TimeEST,TemperatureF,Dew PointF,Humidity,Sea Level PressureIn,VisibilityMPH,Wind Direction,Wind SpeedMPH,Gust SpeedMPH,PrecipitationIn,Events,Conditions,WindDirDegrees,DateUTC
12:55 AM,17.1,5.4,60,30.40,10.0,West,4.6,-,N/A,,Clear,280,2013-01-27 05:55:00
1:55 AM,13.8,5.4,69,30.43,10.0,West,4.6,-,N/A,,Clear,260,2013-01-27 06:55:00
2:55 AM,15.8,5.7,64,30.44,10.0,WNW,4.6,-,N/A,,Clear,300,2013-01-27 07:55:00
3:55 AM,16.3,6.1,64,30.45,10.0,West,4.6,-,N/A,,Clear,280,2013-01-27 08:55:00
4:55 AM,16.3,6.6,66,30.45,10.0,West,5.8,-,N/A,,Clear,280,2013-01-27 09:55:00
5:55 AM,16.7,6.6,65,30.45,10.0,WNW,6.9,-,N/A,,Clear,300,2013-01-27 10:55:00
6:55 AM,14.4,6.3,70,30.47,10.0,WNW,5.8,-,N/A,,Clear,300,2013-01-27 11:55:00
7:55 AM,14.9,8.6,76,30.51,10.0,NW,5.8,-,N/A,,Clear,320,2013-01-27 12:55:00
8:55 AM,23.2,11.5,61,30.52,10.0,NW,8.1,-,N/A,,Clear,320,2013-01-27 13:55:00
9:55 AM,26.4,13.5,58,30.55,10.0,NNW,6.9,-,N/A,,Clear,330,2013-01-27 14:55:00
10:55 AM,28.9,14.5,55,30.54,10.0,NNW,12.7,-,N/A,,Clear,330,2013-01-27 15:55:00
11:55 AM,30.4,14.0,51,30.52,10.0,NW,9.2,-,N/A,,Clear,320,2013-01-27 16:55:00
12:55 PM,32.2,14.0,47,30.50,10.0,WNW,8.1,-,N/A,,Clear,290,2013-01-27 17:55:00
1:55 PM,33.4,13.1,43,30.48,10.0,WNW,8.1,-,N/A,,Clear,290,2013-01-27 18:55:00
2:55 PM,34.3,12.6,41,30.48,10.0,WNW,8.1,-,N/A,,Clear,290,2013-01-27 19:55:00
3:55 PM,33.6,12.0,41,30.49,10.0,WNW,10.4,-,N/A,,Clear,300,2013-01-27 20:55:00
4:55 PM,31.6,11.3,43,30.48,10.0,West,5.8,-,N/A,,Clear,270,2013-01-27 21:55:00
5:55 PM,29.5,12.0,48,30.51,10.0,WNW,3.5,-,N/A,,Clear,300,2013-01-27 22:55:00
6:55 PM,25.2,12.2,58,30.51,10.0,West,3.5,-,N/A,,Scattered Clouds,260,2013-01-27 23:55:00
7:55 PM,22.1,12.7,67,30.51,10.0,SSW,3.5,-,N/A,,Clear,210,2013-01-28 00:55:00
8:55 PM,24.1,12.9,62,30.51,10.0,West,4.6,-,N/A,,Clear,270,2013-01-28 01:55:00
9:55 PM,22.6,12.9,66,30.50,10.0,Calm,Calm,-,N/A,,Clear,0,2013-01-28 02:55:00
10:55 PM,19.6,12.7,75,30.49,10.0,SW,3.5,-,N/A,,Clear,230,2013-01-28 03:55:00
11:55 PM,20.5,13.5,74,30.49,10.0,West,3.5,-,N/A,,Clear,260,2013-01-28 04:55:00